AAL609 KORD-KCLE

Flight info

Callsign AAL609
Flight time 0h 55m
Altitude 33000
Route DUFEE LOGGR DETMR BRWNZ4
Aircraft B738/M-SDE2E3FGHIRWXY/LB1

Departure

Time 2026-05-05 22:54
Airport Chicago O'Hare International Airport (KORD)

Arrival

Time 2026-05-05 23:49
Airport Cleveland Hopkins International Airport (KCLE)
Time Latitude Longitude Altitude Speed Heading
2026-05-05 21:50 41.97372 -87.90419 677 ft 0 kts 116°
2026-05-05 22:31 41.97375 -87.90427 677 ft 2 kts 117°
2026-05-05 22:32 41.97384 -87.90447 677 ft 3 kts 131°
2026-05-05 22:32 41.97399 -87.90464 677 ft 3 kts 148°
2026-05-05 22:32 41.97411 -87.90472 677 ft 0 kts 158°
2026-05-05 22:44 41.97410 -87.90472 677 ft 1 kts 158°
2026-05-05 22:45 41.97394 -87.90467 677 ft 4 kts 175°
2026-05-05 22:45 41.97353 -87.90466 677 ft 7 kts 180°
2026-05-05 22:45 41.97302 -87.90467 677 ft 7 kts 180°
2026-05-05 22:45 41.97257 -87.90467 677 ft 5 kts 180°
2026-05-05 22:46 41.97230 -87.90463 677 ft 2 kts 158°
2026-05-05 22:46 41.97223 -87.90457 677 ft 2 kts 141°
2026-05-05 22:46 41.97212 -87.90431 677 ft 4 kts 104°
2026-05-05 22:46 41.97206 -87.90359 677 ft 12 kts 92°
2026-05-05 22:47 41.97221 -87.90236 677 ft 14 kts 39°
2026-05-05 22:47 41.97233 -87.90145 677 ft 10 kts 143°
2026-05-05 22:47 41.97171 -87.90129 677 ft 8 kts 178°
2026-05-05 22:47 41.97120 -87.90127 677 ft 7 kts 173°
2026-05-05 22:48 41.97075 -87.90121 677 ft 6 kts 171°
2026-05-05 22:48 41.97050 -87.90099 677 ft 2 kts 119°
2026-05-05 22:48 41.97045 -87.90078 677 ft 4 kts 99°
2026-05-05 22:48 41.97047 -87.90020 677 ft 10 kts 88°
2026-05-05 22:49 41.97045 -87.89885 677 ft 19 kts 91°
2026-05-05 22:49 41.97041 -87.89701 677 ft 18 kts 92°
2026-05-05 22:49 41.97024 -87.89594 677 ft 7 kts 121°
2026-05-05 22:49 41.97019 -87.89586 677 ft 0 kts 130°
2026-05-05 22:51 41.97019 -87.89585 677 ft 0 kts 130°
2026-05-05 22:52 41.97018 -87.89585 677 ft 0 kts 130°
2026-05-05 22:52 41.97017 -87.89584 677 ft 1 kts 130°
2026-05-05 22:53 41.97002 -87.89568 677 ft 6 kts 149°
2026-05-05 22:53 41.96951 -87.89555 677 ft 8 kts 181°
2026-05-05 22:53 41.96909 -87.89590 677 ft 6 kts 247°
2026-05-05 22:53 41.96905 -87.89644 677 ft 11 kts 267°
2026-05-05 22:54 41.96904 -87.89882 677 ft 54 kts 271°
2026-05-05 22:54 41.96904 -87.90768 678 ft 133 kts 270°
2026-05-05 22:54 41.96886 -87.92174 1185 ft 153 kts 268°
2026-05-05 22:54 41.96885 -87.93605 2170 ft 156 kts 272°
2026-05-05 22:55 41.96974 -87.95137 2869 ft 175 kts 275°
2026-05-05 22:55 41.97059 -87.96249 3279 ft 186 kts 276°
2026-05-05 22:55 41.97219 -87.98077 3857 ft 208 kts 276°
2026-05-05 22:55 41.97380 -88.00121 4397 ft 233 kts 275°
2026-05-05 22:56 41.97554 -88.02385 5054 ft 251 kts 276°
2026-05-05 22:56 41.97845 -88.04726 6052 ft 256 kts 287°
2026-05-05 22:56 41.98836 -88.06684 7026 ft 261 kts 321°
2026-05-05 22:56 42.00531 -88.07566 8010 ft 268 kts 354°
2026-05-05 22:57 42.02355 -88.07025 8950 ft 277 kts 27°
2026-05-05 22:57 42.03757 -88.05209 9852 ft 286 kts 57°
2026-05-05 22:57 42.04451 -88.02667 10576 ft 299 kts 79°
2026-05-05 22:57 42.04707 -87.99843 11308 ft 308 kts 84°
2026-05-05 22:58 42.04895 -87.96945 12093 ft 314 kts 84°
2026-05-05 22:58 42.05090 -87.93991 12871 ft 320 kts 84°
2026-05-05 22:58 42.05293 -87.90983 13655 ft 325 kts 84°
2026-05-05 22:58 42.05503 -87.87928 14412 ft 331 kts 83°
2026-05-05 22:59 42.05720 -87.84812 15164 ft 337 kts 83°
2026-05-05 22:59 42.05943 -87.81652 15887 ft 343 kts 83°
2026-05-05 22:59 42.06175 -87.78427 16628 ft 348 kts 83°
2026-05-05 22:59 42.06415 -87.75162 17350 ft 354 kts 83°
2026-05-05 23:00 42.06904 -87.68474 18756 ft 365 kts 83°
2026-05-05 23:00 42.07152 -87.65044 19441 ft 370 kts 83°
2026-05-05 23:00 42.07402 -87.61573 20111 ft 376 kts 83°
2026-05-05 23:01 42.07655 -87.58048 20773 ft 381 kts 83°
2026-05-05 23:01 42.07911 -87.54473 21417 ft 386 kts 83°
2026-05-05 23:01 42.08169 -87.50849 22045 ft 392 kts 84°
2026-05-05 23:01 42.08430 -87.47180 22657 ft 397 kts 84°
2026-05-05 23:02 42.08693 -87.43449 23256 ft 402 kts 84°
2026-05-05 23:02 42.08957 -87.39683 23840 ft 407 kts 84°
2026-05-05 23:02 42.09224 -87.35870 24410 ft 412 kts 84°
2026-05-05 23:02 42.09492 -87.32014 24965 ft 416 kts 84°
2026-05-05 23:03 42.09763 -87.28104 25505 ft 421 kts 84°
2026-05-05 23:03 42.10035 -87.24151 26025 ft 426 kts 84°
2026-05-05 23:03 42.10308 -87.20163 26534 ft 430 kts 84°
2026-05-05 23:03 42.10583 -87.16131 27032 ft 435 kts 84°
2026-05-05 23:04 42.10859 -87.12055 27516 ft 439 kts 84°
2026-05-05 23:04 42.11137 -87.07936 27984 ft 443 kts 84°
2026-05-05 23:04 42.11357 -87.03781 28437 ft 447 kts 87°
2026-05-05 23:04 42.11510 -86.99576 28879 ft 451 kts 88°
2026-05-05 23:05 42.11656 -86.95336 29309 ft 455 kts 88°
2026-05-05 23:05 42.11807 -86.91061 29725 ft 459 kts 88°
2026-05-05 23:05 42.11962 -86.86752 30127 ft 463 kts 88°
2026-05-05 23:05 42.12116 -86.82462 30513 ft 466 kts 88°
2026-05-05 23:06 42.12271 -86.78086 30892 ft 470 kts 88°
2026-05-05 23:06 42.12425 -86.73679 31259 ft 473 kts 88°
2026-05-05 23:06 42.12578 -86.69234 31617 ft 476 kts 88°
2026-05-05 23:06 42.12731 -86.64762 31965 ft 480 kts 88°
2026-05-05 23:07 42.12883 -86.60258 32300 ft 483 kts 88°
2026-05-05 23:07 42.13034 -86.55729 32624 ft 486 kts 88°
2026-05-05 23:07 42.13185 -86.51166 32849 ft 491 kts 89°
2026-05-05 23:07 42.13336 -86.46520 32857 ft 499 kts 89°
2026-05-05 23:08 42.13637 -86.37100 32863 ft 506 kts 89°
2026-05-05 23:08 42.13933 -86.27613 32863 ft 505 kts 89°
2026-05-05 23:09 42.14220 -86.18179 32863 ft 503 kts 89°
2026-05-05 23:09 42.14386 -86.08759 32861 ft 502 kts 92°
2026-05-05 23:10 42.14186 -85.99426 32863 ft 502 kts 94°
2026-05-05 23:10 42.13976 -85.90038 32863 ft 501 kts 94°
2026-05-05 23:11 42.13763 -85.80659 32864 ft 500 kts 94°
2026-05-05 23:11 42.13543 -85.71285 32864 ft 500 kts 94°
2026-05-05 23:12 42.13315 -85.61922 32864 ft 500 kts 94°
2026-05-05 23:12 42.13081 -85.52571 32864 ft 500 kts 94°
2026-05-05 23:13 42.12838 -85.43218 32864 ft 500 kts 94°
2026-05-05 23:13 42.12588 -85.33861 32864 ft 500 kts 94°
2026-05-05 23:14 42.12330 -85.24500 32864 ft 500 kts 94°
2026-05-05 23:14 42.12064 -85.15153 32864 ft 500 kts 94°
2026-05-05 23:15 42.11713 -85.05795 32862 ft 499 kts 96°
2026-05-05 23:15 42.11173 -84.96476 32864 ft 499 kts 97°
2026-05-05 23:16 42.10639 -84.87164 32864 ft 499 kts 97°
2026-05-05 23:16 42.10102 -84.77901 32864 ft 499 kts 97°
2026-05-05 23:17 42.09555 -84.68585 32864 ft 499 kts 97°
2026-05-05 23:17 42.08997 -84.59215 32864 ft 499 kts 97°
2026-05-05 23:18 42.08438 -84.49966 32864 ft 499 kts 97°
2026-05-05 23:18 42.07869 -84.40663 32864 ft 499 kts 97°
2026-05-05 23:19 42.07291 -84.31349 32864 ft 499 kts 97°
2026-05-05 23:19 42.06707 -84.22060 32864 ft 499 kts 97°
2026-05-05 23:20 42.06114 -84.12755 32864 ft 499 kts 97°
2026-05-05 23:20 42.05515 -84.03460 32864 ft 499 kts 97°
2026-05-05 23:21 42.04908 -83.94165 32864 ft 499 kts 97°
2026-05-05 23:21 42.04602 -83.89525 32727 ft 499 kts 97°
2026-05-05 23:21 42.04294 -83.84878 32097 ft 498 kts 97°
2026-05-05 23:22 42.03985 -83.80237 31494 ft 497 kts 97°
2026-05-05 23:22 42.03675 -83.75620 30900 ft 495 kts 97°
2026-05-05 23:22 42.03365 -83.71021 30310 ft 492 kts 97°
2026-05-05 23:22 42.03054 -83.66448 29724 ft 490 kts 97°
2026-05-05 23:23 42.02744 -83.61903 29140 ft 487 kts 97°
2026-05-05 23:23 42.02433 -83.57380 28561 ft 485 kts 97°
2026-05-05 23:23 42.02122 -83.52887 27984 ft 482 kts 97°
2026-05-05 23:23 42.01811 -83.48409 27410 ft 479 kts 96°
2026-05-05 23:24 42.01507 -83.44057 26852 ft 476 kts 96°
2026-05-05 23:24 42.01196 -83.39638 26285 ft 473 kts 96°
2026-05-05 23:24 42.00886 -83.35261 25723 ft 469 kts 96°
2026-05-05 23:24 42.00571 -83.30903 25163 ft 466 kts 97°
2026-05-05 23:25 42.00247 -83.26589 24610 ft 462 kts 96°
2026-05-05 23:25 41.99924 -83.22300 24059 ft 459 kts 97°
2026-05-05 23:25 41.99607 -83.18058 23515 ft 455 kts 96°
2026-05-05 23:25 41.99287 -83.13838 22972 ft 451 kts 96°
2026-05-05 23:26 41.98968 -83.09660 22433 ft 448 kts 96°
2026-05-05 23:26 41.98645 -83.05515 21903 ft 444 kts 97°
2026-05-05 23:26 41.98324 -83.01405 21375 ft 440 kts 96°
2026-05-05 23:26 41.98004 -82.97332 20850 ft 436 kts 96°
2026-05-05 23:27 41.97687 -82.93303 20332 ft 432 kts 96°
2026-05-05 23:27 41.97368 -82.89303 19819 ft 428 kts 96°
2026-05-05 23:27 41.97051 -82.85344 19309 ft 424 kts 96°
2026-05-05 23:27 41.96740 -82.81477 18815 ft 420 kts 96°
2026-05-05 23:28 41.96339 -82.77570 18349 ft 414 kts 103°
2026-05-05 23:28 41.95669 -82.73878 17840 ft 410 kts 105°
2026-05-05 23:28 41.94932 -82.70163 17421 ft 403 kts 106°
2026-05-05 23:28 41.94210 -82.66552 16967 ft 398 kts 106°
2026-05-05 23:29 41.93507 -82.63029 16508 ft 393 kts 105°
2026-05-05 23:29 41.92798 -82.59453 16037 ft 388 kts 105°
2026-05-05 23:29 41.92107 -82.55977 15578 ft 383 kts 105°
2026-05-05 23:29 41.91440 -82.52593 15132 ft 378 kts 105°
2026-05-05 23:30 41.90771 -82.49209 14683 ft 372 kts 105°
2026-05-05 23:30 41.90322 -82.46946 14384 ft 368 kts 105°
2026-05-05 23:30 41.89458 -82.42591 13810 ft 361 kts 105°
2026-05-05 23:30 41.88818 -82.39359 13385 ft 355 kts 105°
2026-05-05 23:31 41.88193 -82.36182 12961 ft 349 kts 105°
2026-05-05 23:31 41.87577 -82.33062 12545 ft 342 kts 105°
2026-05-05 23:31 41.86973 -82.30009 12142 ft 336 kts 105°
2026-05-05 23:31 41.86319 -82.27028 11668 ft 331 kts 112°
2026-05-05 23:32 41.85174 -82.24401 11214 ft 324 kts 131°
2026-05-05 23:32 41.83529 -82.22426 10855 ft 313 kts 149°
2026-05-05 23:32 41.81611 -82.21147 10531 ft 302 kts 162°
2026-05-05 23:32 41.79617 -82.20416 10214 ft 293 kts 170°
2026-05-05 23:33 41.77630 -82.19929 9879 ft 287 kts 173°
2026-05-05 23:33 41.75685 -82.19510 9575 ft 280 kts 173°
2026-05-05 23:33 41.73781 -82.19110 9286 ft 275 kts 173°
2026-05-05 23:33 41.71900 -82.18720 9005 ft 273 kts 174°
2026-05-05 23:34 41.70024 -82.18335 8723 ft 273 kts 173°
2026-05-05 23:34 41.68155 -82.17956 8442 ft 271 kts 173°
2026-05-05 23:34 41.66300 -82.17584 8167 ft 269 kts 173°
2026-05-05 23:34 41.64454 -82.17221 7893 ft 268 kts 174°
2026-05-05 23:35 41.62606 -82.16858 7618 ft 267 kts 174°
2026-05-05 23:35 41.60772 -82.16497 7346 ft 267 kts 173°
2026-05-05 23:35 41.58938 -82.16136 7072 ft 265 kts 174°
2026-05-05 23:35 41.57113 -82.15804 6749 ft 264 kts 175°
2026-05-05 23:36 41.55299 -82.15525 6398 ft 262 kts 176°
2026-05-05 23:36 41.54203 -82.15361 6188 ft 262 kts 175°
2026-05-05 23:36 41.51721 -82.14989 5829 ft 259 kts 176°
2026-05-05 23:36 41.49921 -82.14723 5649 ft 261 kts 176°
2026-05-05 23:37 41.48121 -82.14451 5465 ft 259 kts 175°
2026-05-05 23:37 41.46918 -82.14270 5341 ft 258 kts 175°
2026-05-05 23:37 41.44570 -82.13909 5086 ft 252 kts 175°
2026-05-05 23:37 41.42869 -82.13640 5191 ft 242 kts 175°
2026-05-05 23:38 41.41230 -82.13376 5043 ft 232 kts 175°
2026-05-05 23:38 41.40164 -82.13202 5011 ft 223 kts 176°
2026-05-05 23:38 41.38648 -82.12953 5000 ft 218 kts 176°
2026-05-05 23:38 41.37144 -82.12702 4995 ft 216 kts 175°
2026-05-05 23:39 41.35658 -82.12605 4973 ft 215 kts 194°
2026-05-05 23:39 41.34385 -82.13533 4992 ft 209 kts 223°
2026-05-05 23:39 41.33339 -82.14864 4992 ft 207 kts 228°
2026-05-05 23:39 41.32374 -82.16217 4994 ft 195 kts 229°
2026-05-05 23:40 41.31483 -82.17486 4984 ft 179 kts 230°
2026-05-05 23:40 41.30669 -82.18642 4993 ft 170 kts 230°
2026-05-05 23:40 41.29869 -82.19771 4988 ft 166 kts 229°
2026-05-05 23:40 41.29054 -82.20927 5060 ft 176 kts 227°
2026-05-05 23:41 41.27972 -82.21607 5067 ft 177 kts 181°
2026-05-05 23:41 41.26772 -82.21204 5096 ft 180 kts 158°
2026-05-05 23:41 41.25676 -82.20408 5118 ft 179 kts 146°
2026-05-05 23:41 41.24663 -82.19432 5122 ft 179 kts 142°
2026-05-05 23:42 41.23674 -82.18422 5127 ft 179 kts 142°
2026-05-05 23:42 41.22805 -82.17252 5109 ft 178 kts 118°
2026-05-05 23:42 41.22544 -82.15681 5111 ft 176 kts 81°
2026-05-05 23:42 41.22963 -82.14148 5266 ft 178 kts 57°
2026-05-05 23:43 41.23690 -82.12813 5241 ft 177 kts 47°
2026-05-05 23:43 41.24486 -82.11616 5235 ft 170 kts 45°
2026-05-05 23:43 41.25246 -82.10499 5136 ft 159 kts 46°
2026-05-05 23:43 41.25969 -82.09411 4969 ft 156 kts 47°
2026-05-05 23:44 41.26675 -82.08322 4782 ft 156 kts 48°
2026-05-05 23:44 41.27371 -82.07233 4593 ft 152 kts 49°
2026-05-05 23:44 41.28047 -82.06169 4385 ft 149 kts 49°
2026-05-05 23:44 41.28710 -82.05123 4187 ft 146 kts 49°
2026-05-05 23:45 41.29369 -82.04085 3994 ft 148 kts 50°
2026-05-05 23:45 41.30034 -82.03039 3797 ft 148 kts 50°
2026-05-05 23:45 41.30693 -82.02002 3601 ft 147 kts 50°
2026-05-05 23:45 41.31351 -82.00967 3406 ft 146 kts 50°
2026-05-05 23:46 41.32006 -81.99935 3212 ft 146 kts 50°
2026-05-05 23:46 41.32659 -81.98907 3019 ft 145 kts 50°
2026-05-05 23:46 41.33308 -81.97884 2826 ft 145 kts 50°
2026-05-05 23:46 41.33958 -81.96860 2633 ft 144 kts 50°
2026-05-05 23:47 41.34605 -81.95839 2441 ft 144 kts 50°
2026-05-05 23:47 41.35250 -81.94822 2250 ft 144 kts 50°
2026-05-05 23:47 41.35893 -81.93808 2060 ft 143 kts 50°
2026-05-05 23:47 41.36537 -81.92793 1869 ft 143 kts 50°
2026-05-05 23:48 41.37177 -81.91783 1679 ft 143 kts 50°
2026-05-05 23:48 41.37816 -81.90776 1490 ft 142 kts 50°
2026-05-05 23:48 41.38453 -81.89771 1301 ft 142 kts 50°
2026-05-05 23:48 41.39089 -81.88766 1112 ft 142 kts 50°
2026-05-05 23:49 41.39716 -81.87782 908 ft 141 kts 49°
2026-05-05 23:49 41.40326 -81.86813 801 ft 123 kts 50°
2026-05-05 23:49 41.40731 -81.86174 800 ft 57 kts 49°
2026-05-05 23:49 41.40841 -81.85999 800 ft 2 kts 51°
2026-05-05 23:50 41.40893 -81.85918 800 ft 14 kts 50°
2026-05-05 23:50 41.40896 -81.85859 800 ft 6 kts 129°
2026-05-05 23:50 41.40862 -81.85817 800 ft 7 kts 137°
2026-05-05 23:50 41.40854 -81.85773 800 ft 5 kts 77°
2026-05-05 23:51 41.40889 -81.85705 800 ft 17 kts 51°
2026-05-05 23:51 41.40986 -81.85554 800 ft 21 kts 51°
2026-05-05 23:51 41.41048 -81.85404 800 ft 18 kts 84°
2026-05-05 23:51 41.41058 -81.85242 800 ft 17 kts 84°
2026-05-05 23:52 41.41072 -81.85084 800 ft 17 kts 83°
2026-05-05 23:52 41.41084 -81.84927 800 ft 17 kts 86°
2026-05-05 23:52 41.41090 -81.84767 800 ft 18 kts 89°
2026-05-05 23:52 41.41114 -81.84618 800 ft 15 kts 51°
2026-05-05 23:53 41.41179 -81.84522 800 ft 13 kts 51°
2026-05-05 23:53 41.41221 -81.84429 800 ft 10 kts 103°
2026-05-05 23:53 41.41183 -81.84359 800 ft 9 kts 131°
2026-05-05 23:53 41.41156 -81.84295 800 ft 8 kts 108°
2026-05-05 23:54 41.41153 -81.84284 800 ft 0 kts 110°
2026-05-05 23:59 41.41143 -81.84242 800 ft 6 kts 99°
2026-05-06 00:00 41.41137 -81.84190 800 ft 5 kts 99°